Syracuse, NY

1:04 AM EDT on July 22, 2017 (GMT -0400)
Syracuse Hancock International

Weather History for KSYR - April, 2011

Change the Weather History Date:

Thursday, April 14, 2011

  Actual Average Record
Temperature  
Mean Temperature 47 °F 46 °F  
Max Temperature 56 °F 57 °F 83 °F (1968)
Min Temperature 37 °F 36 °F 22 °F (1943)
Degree Days  
Heating Degree Days 18 19  
Month to date heating degree days 240 301  
Since 1 July heating degree days 6208 6089  
Cooling Degree Days 0 0  
Month to date cooling degree days 4 0  
Year to date cooling degree days 4 0  
Moisture  
Dew Point 38 °F    
Average Humidity 71    
Maximum Humidity 92    
Minimum Humidity 50    
Precipitation  
Precipitation 0.00 in 0.11 in 0.65 in (1948)
Month to date precipitation 1.75 1.57  
Year to date precipitation 8.69 9.09  
Snow  
Snow 0.00 in 0.10 in 2.00 in (1957)
Month to date snowfall 0.3 2.6  
Since 1 July snowfall 178.9 122.5  
Snow Depth 0.00 in    
Sea Level Pressure  
Sea Level Pressure 30.09 in    
Wind  
Wind Speed 9 mph (NW)    
Max Wind Speed 17 mph    
Max Gust Speed 23 mph    
Visibility 10 miles    
Events      
T = Trace of Precipitation, MM = Missing Value Source: NWS Daily Summary

Daily Weather History Graph

Daily Weather History Graph

Search for Another Location

Airport or City:

Trip Planner

Search our weather history database for the weather conditions in past years. The results will help you decide how hot, cold, wet, or windy it might be!

Date:

Astronomy

Apr. 14, 2011 Rise Set
Actual Time 6:24 AM EDT 7:45 PM EDT
Civil Twilight 5:55 AM EDT 8:15 PM EDT
Nautical Twilight 5:19 AM EDT 8:50 PM EDT
Astronomical Twilight 4:42 AM EDT 9:28 PM EDT
Moon 3:51 PM EDT (4/14) 4:05 AM EDT (4/14)
Length of Visible Light 14h 20m
Length of Day
13h 21m
Waxing Gibbous, 83% of the Moon is Illuminated
Apr 14
Waxing Gibbous
Apr 17
Full
Apr 24
Last Quarter
May 3
New
May 10
First Quarter

Hourly Weather History & Observations

Time (EDT) Temp. Windchill Dew Point Humidity Pressure Visibility Wind Dir Wind Speed Gust Speed Precip Events Conditions
12:04 AM 44.6 °F 40.7 °F 42.8 °F 93% 29.95 in 9.0 mi NW 6.9 mph - N/A   Overcast
12:54 AM 45.0 °F 39.7 °F 42.1 °F 90% 29.96 in 10.0 mi NW 10.4 mph - N/A   Overcast
1:54 AM 44.1 °F 38.6 °F 41.0 °F 89% 29.96 in 10.0 mi WNW 10.4 mph - N/A   Overcast
2:54 AM 44.1 °F 39.5 °F 41.0 °F 89% 29.97 in 10.0 mi NW 8.1 mph - N/A   Overcast
3:54 AM 45.0 °F 40.6 °F 41.0 °F 86% 29.98 in 10.0 mi NW 8.1 mph - N/A   Overcast
3:59 AM 44.6 °F 40.2 °F 41.0 °F 87% 29.98 in 10.0 mi NW 8.1 mph - N/A   Overcast
4:05 AM 44.6 °F 40.2 °F 41.0 °F 87% 29.98 in 10.0 mi NW 8.1 mph - N/A   Overcast
4:35 AM 44.6 °F 41.4 °F 42.8 °F 93% 29.98 in 10.0 mi WNW 5.8 mph - N/A   Overcast
4:54 AM 45.0 °F 42.6 °F 42.1 °F 90% 29.98 in 10.0 mi WNW 4.6 mph - N/A   Overcast
4:59 AM 44.6 °F 43.1 °F 42.8 °F 93% 29.98 in 10.0 mi WNW 3.5 mph - N/A   Overcast
5:05 AM 44.6 °F 42.2 °F 42.8 °F 93% 29.98 in 10.0 mi WNW 4.6 mph - N/A   Overcast
5:47 AM 44.6 °F 43.1 °F 42.8 °F 93% 30.00 in 10.0 mi WNW 3.5 mph - N/A   Overcast
5:54 AM 45.0 °F 42.6 °F 42.1 °F 90% 30.00 in 10.0 mi WNW 4.6 mph - N/A   Overcast
6:46 AM 44.6 °F 41.4 °F 39.2 °F 81% 30.01 in 8.0 mi West 5.8 mph - N/A   Scattered Clouds
6:54 AM 43.0 °F 40.3 °F 39.9 °F 89% 30.01 in 9.0 mi West 4.6 mph - N/A   Scattered Clouds
7:54 AM 46.0 °F 42.5 °F 41.0 °F 83% 30.03 in 8.0 mi WNW 6.9 mph - N/A   Scattered Clouds
8:54 AM 48.0 °F - 39.9 °F 74% 30.04 in 10.0 mi NW 9.2 mph - N/A   Scattered Clouds
9:54 AM 50.0 °F - 39.9 °F 68% 30.06 in 10.0 mi WNW 9.2 mph - N/A   Mostly Cloudy
10:54 AM 53.1 °F - 39.9 °F 61% 30.07 in 10.0 mi NNW 8.1 mph - N/A   Mostly Cloudy
11:54 AM 54.0 °F - 35.1 °F 49% 30.08 in 10.0 mi NW 11.5 mph - N/A   Mostly Cloudy
12:54 PM 54.0 °F - 39.0 °F 57% 30.09 in 10.0 mi WNW 8.1 mph 18.4 mph N/A   Mostly Cloudy
1:54 PM 53.1 °F - 39.9 °F 61% 30.13 in 10.0 mi NNW 15.0 mph - N/A   Overcast
2:23 PM 50.0 °F - 39.2 °F 66% 30.15 in 10.0 mi NW 16.1 mph - N/A   Overcast
2:41 PM 48.2 °F - 39.2 °F 71% 30.16 in 10.0 mi NNW 13.8 mph - N/A   Overcast
2:54 PM 46.9 °F - 39.0 °F 74% 30.16 in 10.0 mi NNW 12.7 mph - N/A   Overcast
3:02 PM 46.4 °F 40.4 °F 39.2 °F 76% 30.16 in 10.0 mi NNW 13.8 mph - N/A   Overcast
3:32 PM 48.2 °F - 37.4 °F 66% 30.16 in 10.0 mi North 12.7 mph 19.6 mph N/A   Overcast
3:54 PM 48.0 °F - 37.9 °F 68% 30.17 in 10.0 mi North 12.7 mph - N/A   Overcast
4:08 PM 50.0 °F - 37.4 °F 62% 30.17 in 10.0 mi North 8.1 mph - N/A   Overcast
4:54 PM 51.1 °F - 37.0 °F 59% 30.17 in 10.0 mi North 8.1 mph - N/A   Mostly Cloudy
5:07 PM 51.8 °F - 35.6 °F 54% 30.17 in 10.0 mi Variable 4.6 mph - N/A   Scattered Clouds
5:54 PM 53.1 °F - 35.1 °F 50% 30.18 in 10.0 mi NE 11.5 mph - N/A   Scattered Clouds
6:54 PM 50.0 °F - 33.1 °F 52% 30.20 in 10.0 mi NE 6.9 mph - N/A   Mostly Cloudy
7:54 PM 48.0 °F - 30.9 °F 52% 30.25 in 10.0 mi North 12.7 mph - N/A   Partly Cloudy
8:54 PM 44.1 °F 39.0 °F 30.9 °F 60% 30.28 in 10.0 mi North 9.2 mph - N/A   Partly Cloudy
9:54 PM 43.0 °F 37.7 °F 28.9 °F 58% 30.30 in 10.0 mi NNE 9.2 mph - N/A   Partly Cloudy
10:54 PM 41.0 °F 36.4 °F 26.1 °F 55% 30.32 in 10.0 mi NNE 6.9 mph - N/A   Partly Cloudy
11:54 PM 39.0 °F 34.8 °F 25.0 °F 57% 30.35 in 10.0 mi NNE 5.8 mph - N/A   Partly Cloudy